Hallock, MN

4:29 PM CDT on October 17, 2017 (GMT -0500)
Hallock Municipal

Weather History for KHCO - February, 2013

Change the Weather History Date:

Sunday, February 3, 2013

  Actual Average Record
Temperature  
Mean Temperature 0 °F -  
Max Temperature 6 °F 9 °F 41 °F (1954)
Min Temperature -7 °F -8 °F -42 °F (1936)
Degree Days  
Heating Degree Days 66    
Moisture  
Dew Point -6 °F    
Average Humidity 75    
Maximum Humidity 85    
Minimum Humidity 66    
Precipitation  
Precipitation 0.00 in - - ()
Sea Level Pressure  
Sea Level Pressure 30.05 in    
Wind  
Wind Speed 6 mph (NW)    
Max Wind Speed 14 mph    
Max Gust Speed 17 mph    
Visibility 10 miles    
Events      
Averages and records for this station are not official NWS values.
T = Trace of Precipitation, MM = Missing Value Source: NWS Daily Summary

Daily Weather History Graph

Daily Weather History Graph

Search for Another Location

Airport or City:

Trip Planner

Search our weather history database for the weather conditions in past years. The results will help you decide how hot, cold, wet, or windy it might be!

Date:

Astronomy

Feb. 03, 2013 Rise Set
Actual Time 7:54 AM CST 5:29 PM CST
Civil Twilight 7:20 AM CST 6:03 PM CST
Nautical Twilight 6:43 AM CST 6:40 PM CST
Astronomical Twilight 6:06 AM CST 7:17 PM CST
Moon 1:24 AM CST (2/3) 11:04 AM CST (2/3)
Length of Visible Light 10h 42m
Length of Day
9h 35m
Waning Gibbous, 48% of the Moon is Illuminated
Feb 3
Waning Gibbous
Feb 10
New
Feb 17
First Quarter
Feb 25
Full
Mar 4
Last Quarter

Hourly Weather History & Observations

Time (CST) Temp. Windchill Dew Point Humidity Pressure Visibility Wind Dir Wind Speed Gust Speed Precip Events Conditions
12:14 AM 6.8 °F -7.8 °F 1.4 °F 79% 30.03 in 10.0 mi North 10.4 mph - N/A   Overcast
12:34 AM 6.8 °F -6.9 °F -0.4 °F 72% 30.03 in 10.0 mi North 9.2 mph - N/A   Overcast
12:54 AM 5.0 °F -4.1 °F -0.4 °F 78% 30.04 in 10.0 mi NNW 4.6 mph - N/A   Overcast
1:14 AM 5.0 °F -5.6 °F -0.4 °F 78% 30.04 in 10.0 mi NNW 5.8 mph - N/A   Overcast
1:34 AM 6.8 °F -3.5 °F 1.4 °F 79% 30.04 in 10.0 mi NNW 5.8 mph - N/A   Overcast
1:54 AM 6.8 °F -4.8 °F 1.4 °F 79% 30.04 in 10.0 mi NNW 6.9 mph - N/A   Overcast
2:14 AM 6.8 °F -3.5 °F 1.4 °F 79% 30.04 in 10.0 mi NW 5.8 mph - N/A   Overcast
2:34 AM 6.8 °F -6.9 °F 1.4 °F 79% 30.05 in 10.0 mi NW 9.2 mph - N/A   Overcast
2:54 AM 6.8 °F -8.6 °F 1.4 °F 79% 30.06 in 10.0 mi NNW 11.5 mph - N/A   Overcast
3:14 AM 6.8 °F -10.0 °F 1.4 °F 79% 30.05 in 10.0 mi NNW 13.8 mph 17.3 mph N/A   Overcast
3:34 AM 6.8 °F -8.6 °F -0.4 °F 72% 30.05 in 10.0 mi NNW 11.5 mph - N/A   Overcast
3:54 AM 5.0 °F -11.6 °F -0.4 °F 78% 30.04 in 10.0 mi NNW 12.7 mph - N/A   Overcast
4:14 AM 3.2 °F -13.9 °F -0.4 °F 85% 30.04 in 10.0 mi North 12.7 mph - N/A   Mostly Cloudy
4:34 AM 1.4 °F -14.5 °F -2.2 °F 85% 30.05 in 10.0 mi NNW 10.4 mph - N/A   Scattered Clouds
4:54 AM 1.4 °F -13.5 °F -4.0 °F 78% 30.05 in 10.0 mi NW 9.2 mph - N/A   Scattered Clouds
5:14 AM 1.4 °F -15.3 °F -5.8 °F 72% 30.07 in 10.0 mi NW 11.5 mph - N/A   Mostly Cloudy
5:34 AM 1.4 °F -13.5 °F -5.8 °F 72% 30.06 in 10.0 mi NNW 9.2 mph - N/A   Overcast
5:54 AM 1.4 °F -11.3 °F -5.8 °F 72% 30.06 in 10.0 mi NNW 6.9 mph - N/A   Overcast
6:14 AM -0.4 °F -13.4 °F -5.8 °F 78% 30.07 in 10.0 mi NNW 6.9 mph - N/A   Overcast
6:34 AM -0.4 °F -15.7 °F -5.8 °F 78% 30.08 in 10.0 mi NW 9.2 mph - N/A   Overcast
6:54 AM -0.4 °F -14.7 °F -5.8 °F 78% 30.08 in 10.0 mi NW 8.1 mph - N/A   Overcast
7:13 AM -0.4 °F -12.0 °F -5.8 °F 78% 30.08 in 10.0 mi NNW 5.8 mph - N/A   Overcast
7:34 AM -0.4 °F -12.0 °F -5.8 °F 78% 30.08 in 10.0 mi NNW 5.8 mph - N/A   Overcast
7:53 AM -0.4 °F -12.0 °F -5.8 °F 78% 30.08 in 10.0 mi NNW 5.8 mph - N/A   Overcast
8:33 AM -0.4 °F -8.3 °F -5.8 °F 78% 30.08 in 10.0 mi NNW 3.5 mph - N/A   Overcast
8:54 AM -0.4 °F -10.4 °F -5.8 °F 78% 30.08 in 10.0 mi NNW 4.6 mph - N/A   Mostly Cloudy
9:13 AM -0.4 °F -8.3 °F -5.8 °F 78% 30.08 in 10.0 mi North 3.5 mph - N/A   Scattered Clouds
9:34 AM -0.4 °F -10.4 °F -7.6 °F 72% 30.08 in 10.0 mi NNE 4.6 mph - N/A   Scattered Clouds
9:54 AM -0.4 °F -8.3 °F -7.6 °F 72% 30.08 in 10.0 mi NNE 3.5 mph - N/A   Clear
10:13 AM -0.4 °F -8.3 °F -7.6 °F 72% 30.07 in 10.0 mi NNE 3.5 mph - N/A   Clear
10:34 AM -0.4 °F - -7.6 °F 72% 30.07 in 10.0 mi Calm Calm - N/A   Scattered Clouds
10:54 AM 1.4 °F - -7.6 °F 66% 30.07 in 10.0 mi Calm Calm - N/A   Mostly Cloudy
11:13 AM 1.4 °F - -5.8 °F 72% 30.07 in 10.0 mi Calm Calm - N/A   Overcast
11:34 AM 1.4 °F - -7.6 °F 66% 30.06 in 10.0 mi Calm Calm - N/A   Scattered Clouds
11:54 AM 1.4 °F - -7.6 °F 66% 30.06 in 10.0 mi Calm Calm - N/A   Clear
12:13 PM 1.4 °F - -5.8 °F 72% 30.06 in 10.0 mi Calm Calm - N/A   Clear
12:34 PM 3.2 °F - -5.8 °F 66% 30.06 in 10.0 mi Calm Calm - N/A   Clear
12:54 PM 3.2 °F - -5.8 °F 66% 30.06 in 10.0 mi Calm Calm - N/A   Clear
1:13 PM 3.2 °F -6.2 °F -5.8 °F 66% 30.06 in 10.0 mi WSW 4.6 mph - N/A   Clear
1:34 PM 3.2 °F - -5.8 °F 66% 30.05 in 10.0 mi Calm Calm - N/A   Clear
1:54 PM 3.2 °F -4.2 °F -5.8 °F 66% 30.05 in 10.0 mi West 3.5 mph - N/A   Clear
2:13 PM 3.2 °F - -5.8 °F 66% 30.04 in 10.0 mi Calm Calm - N/A   Clear
2:34 PM 3.2 °F -4.2 °F -5.8 °F 66% 30.03 in 10.0 mi NW 3.5 mph - N/A   Clear
2:54 PM 3.2 °F -4.2 °F -5.8 °F 66% 30.03 in 10.0 mi North 3.5 mph - N/A   Clear
3:13 PM 3.2 °F -6.2 °F -5.8 °F 66% 30.03 in 10.0 mi NW 4.6 mph - N/A   Clear
3:34 PM 3.2 °F -6.2 °F -5.8 °F 66% 30.03 in 10.0 mi NW 4.6 mph - N/A   Clear
3:53 PM 3.2 °F -7.8 °F -5.8 °F 66% 30.03 in 10.0 mi NW 5.8 mph - N/A   Clear
4:14 PM 3.2 °F -4.2 °F -5.8 °F 66% 30.03 in 10.0 mi NW 3.5 mph - N/A   Clear
4:33 PM 1.4 °F -6.2 °F -5.8 °F 72% 30.03 in 10.0 mi NW 3.5 mph - N/A   Clear
4:54 PM -0.4 °F -10.4 °F -7.6 °F 72% 30.03 in 10.0 mi NW 4.6 mph - N/A   Clear
5:14 PM -0.4 °F -10.4 °F -7.6 °F 72% 30.04 in 10.0 mi WNW 4.6 mph - N/A   Clear
5:33 PM -0.4 °F -10.4 °F -7.6 °F 72% 30.04 in 10.0 mi WNW 4.6 mph - N/A   Clear
5:54 PM -2.2 °F -14.2 °F -9.4 °F 71% 30.04 in 10.0 mi NW 5.8 mph - N/A   Clear
6:14 PM -2.2 °F -10.4 °F -9.4 °F 71% 30.04 in 10.0 mi NW 3.5 mph - N/A   Clear
6:33 PM -4.0 °F - -9.4 °F 78% 30.04 in 10.0 mi Calm Calm - N/A   Clear
6:54 PM -5.8 °F - -11.2 °F 77% 30.04 in 10.0 mi Calm Calm - N/A   Scattered Clouds
7:14 PM -7.6 °F - -11.2 °F 84% 30.03 in 10.0 mi Calm Calm - N/A   Scattered Clouds
7:33 PM -5.8 °F - -11.2 °F 77% 30.03 in 10.0 mi Calm Calm - N/A   Clear
7:54 PM -7.6 °F - -13.0 °F 77% 30.03 in 10.0 mi Calm Calm - N/A   Scattered Clouds
8:13 PM -7.6 °F - -11.2 °F 84% 30.04 in 10.0 mi Calm Calm - N/A   Mostly Cloudy
8:34 PM -7.6 °F - -11.2 °F 84% 30.03 in 10.0 mi Calm Calm - N/A   Overcast
8:54 PM -7.6 °F - -13.0 °F 77% 30.04 in 10.0 mi Calm Calm - N/A   Overcast
9:13 PM -5.8 °F - -11.2 °F 77% 30.05 in 10.0 mi Calm Calm - N/A   Overcast
9:34 PM -5.8 °F - -11.2 °F 77% 30.05 in 10.0 mi Calm Calm - N/A   Overcast
9:54 PM -5.8 °F -14.5 °F -11.2 °F 77% 30.05 in 10.0 mi South 3.5 mph - N/A   Overcast
10:13 PM -5.8 °F -14.5 °F -9.4 °F 84% 30.06 in 10.0 mi SE 3.5 mph - N/A   Overcast
10:34 PM -5.8 °F -14.5 °F -9.4 °F 84% 30.05 in 10.0 mi South 3.5 mph - N/A   Overcast
10:54 PM -5.8 °F -14.5 °F -9.4 °F 84% 30.05 in 10.0 mi South 3.5 mph - N/A   Overcast
11:13 PM -5.8 °F -14.5 °F -9.4 °F 84% 30.05 in 10.0 mi South 3.5 mph - N/A   Overcast
11:34 PM -5.8 °F -16.7 °F -9.4 °F 84% 30.05 in 10.0 mi South 4.6 mph - N/A   Overcast
11:54 PM -5.8 °F -18.4 °F -9.4 °F 84% 30.04 in 10.0 mi SSE 5.8 mph - N/A   Overcast